Flag for U.S.A. Weather past 2 weeks in Pittsburgh, Pennsylvania, U.S.A.

Now
77 °F

Partly sunny.


Feels Like: 78 °F
Forecast: 64 / 84 °F
Wind: No wind

Location: Allegheny County Airport

Current Time: May 28, 2015 at 4:58:07 PM

Latest Report: May 28, 2015 at 3:53 PM


Visibility: 10 mi

Pressure: 30.23 "Hg

Humidity: 45%

Dew point: 54 °F

Location of PittsburghLocation

Historic Weather in Pittsburgh — Graph

°F

Pittsburgh temperature yesterday

Maximum temperature yesterday: 79 °F (at 3:53 PM)
Minimum temperature yesterday: 65 °F (at 4:53 AM)
Average temperature yesterday: 72 °F

Past Weeks' High & Low Weather Summary

 TemperatureHumidityPressure
High83 °F (May 25, 3:53 PM)91% (May 17, 2:53 AM)30.48 "Hg (May 17, 2:53 AM)
Low41 °F (May 14, 4:53 AM)18% (May 24, 5:53 PM)29.94 "Hg (May 21, 3:53 PM)
Average64 °F59%30.17 "Hg
* Reported May 13 3:01 PM — May 28 3:53 PM, Pittsburgh, Weather by CustomWeather, © 2015

Note: Actual official high and low records may vary slightly from our data, if they occured in-between our weather recording intervals... More about our weather records

Advertising

Pittsburgh weather history for previous 24 hours

 ConditionsComfort  
Time TempWeatherWind HumidityBarometerVisibility
3:53 PM
Thu, May 28
77 °FPartly sunny.No wind45%30.23 "Hg10 mi
2:53 PM77 °FScattered clouds.3 mph47%30.24 "Hg10 mi
1:53 PM75 °FScattered clouds.6 mph48%30.25 "Hg10 mi
12:53 PM76 °FPassing clouds.8 mph50%30.24 "Hg10 mi
11:53 AM76 °FSunny.No wind48%30.24 "Hg10 mi
10:53 AM73 °FSunny.6 mph57%30.24 "Hg10 mi
9:53 AM71 °FScattered clouds.No wind63%30.24 "Hg10 mi
8:53 AM69 °FBroken clouds.7 mph68%30.23 "Hg10 mi
7:53 AM68 °FScattered clouds.6 mph70%30.21 "Hg10 mi
6:53 AM64 °FSunny.3 mph78%30.19 "Hg10 mi
5:53 AM65 °FClear.3 mph73%30.16 "Hg10 mi
4:53 AM66 °FClear.6 mph70%30.14 "Hg10 mi
3:53 AM68 °FClear.8 mph68%30.13 "Hg10 mi
2:53 AM68 °FClear.9 mph70%30.14 "Hg10 mi
1:53 AM67 °FClear.6 mph76%30.13 "Hg10 mi
12:53 AM69 °FClear.5 mph70%30.12 "Hg10 mi
11:53 PM
Wed, May 27
70 °FClear.8 mph68%30.12 "Hg10 mi
10:53 PM71 °FClear.7 mph66%30.11 "Hg10 mi
9:53 PM73 °FClear.8 mph62%30.09 "Hg10 mi
8:53 PM74 °FSunny.7 mph57%30.09 "Hg10 mi
7:53 PM77 °FSunny.8 mph52%30.09 "Hg10 mi
6:53 PM78 °FSunny.14 mph45%30.09 "Hg10 mi
5:53 PM79 °FScattered clouds.13 mph44%30.09 "Hg10 mi
4:53 PM79 °FScattered clouds.15 mph45%30.09 "Hg10 mi
Weather by CustomWeather, © 2015

See weather overviewHow to use our weather pages